Precipitable_Water
1.73 1.78 1.90 1.78 1.70 1.76 1.82 1.83 1.80 1.79 1.76 1.67 1.71 1.76 1.63 1.53 1.59 1.66 1.78 1.79 1.79 1.73 1.49 1.42 1.47 1.39 1.33 1.53 1.51 1.56 1.51 1.57 1.59 1.61 1.60 1.68 1.70 1.69 1.73 1.81 1.86 1.84 1.85
1.77 1.74 1.81 1.80 1.79 1.78 1.87 1.88 1.81 1.77 1.76 1.73 1.63 1.75 1.79 1.67 1.69 1.70 1.66 1.74 1.80 1.79 1.58 1.44 1.38 1.44 1.40 1.40 1.49 1.65 1.54 1.57 1.59 1.64 1.61 1.61 1.61 1.65 1.65 1.67 1.75 1.75 1.78
1.87 1.86 1.90 1.90 1.91 1.96 1.87 1.88 1.90 1.83 1.73 1.76 1.68 1.67 1.73 1.78 1.73 1.76 1.78 1.79 1.75 1.89 1.77 1.58 1.50 1.46 1.40 1.45 1.43 1.44 1.47 1.60 1.60 1.69 1.70 1.66 1.62 1.64 1.64 1.65 1.73 1.73 1.73
2.04 2.02 1.95 1.96 2.00 1.98 1.91 1.92 1.90 1.86 1.78 1.70 1.64 1.70 1.67 1.68 1.75 1.73 1.77 1.79 1.81 1.68 1.85 1.84 1.60 1.55 1.47 1.39 1.48 1.49 1.52 1.53 1.50 1.46 1.48 1.52 1.59 1.64 1.65 1.66 1.62 1.65 1.72
2.01 2.03 1.98 1.95 1.91 1.91 1.87 1.82 1.80 1.83 1.83 1.84 1.73 1.62 1.67 1.65 1.63 1.66 1.67 1.72 1.80 1.76 1.67 1.79 1.80 1.71 1.56 1.39 1.39 1.46 1.45 1.47 1.49 1.46 1.49 1.53 1.58 1.59 1.53 1.50 1.56 1.59 1.59
1.93 1.90 1.86 1.79 1.78 1.70 1.65 1.69 1.67 1.79 1.73 1.77 1.82 1.69 1.60 1.66 1.68 1.60 1.58 1.64 1.69 1.72 1.75 1.69 1.78 1.85 1.74 1.49 1.50 1.50 1.43 1.43 1.46 1.49 1.49 1.52 1.52 1.54 1.52 1.54 1.58 1.62 1.63
1.78 1.75 1.75 1.74 1.67 1.52 1.42 1.43 1.44 1.44 1.54 1.70 1.65 1.66 1.72 1.67 1.65 1.64 1.63 1.58 1.56 1.62 1.69 1.73 1.66 1.72 1.86 1.73 1.66 1.58 1.39 1.47 1.52 1.53 1.57 1.58 1.61 1.63 1.65 1.65 1.66 1.66 1.69
1.44 1.36 1.31 1.26 1.27 1.22 1.22 1.21 1.24 1.25 1.36 1.54 1.49 1.50 1.26 1.47 1.58 1.66 1.68 1.59 1.59 1.59 1.50 1.60 1.73 1.69 1.68 1.76 1.78 1.73 1.54 1.46 1.47 1.50 1.54 1.61 1.63 1.66 1.68 1.67 1.67 1.68 1.68
1.18 1.18 1.19 1.19 1.18 1.21 1.17 1.26 1.30 1.29 1.20 1.36 1.50 1.47 1.27 1.16 1.32 1.58 1.65 1.67 1.60 1.62 1.60 1.49 1.53 1.71 1.73 1.69 1.72 1.76 1.73 1.64 1.54 1.51 1.54 1.60 1.61 1.59 1.63 1.63 1.65 1.67 1.68
1.05 1.06 1.06 1.07 1.10 1.16 1.18 1.25 1.30 1.28 1.31 1.22 1.45 1.57 1.63 1.51 1.35 1.31 1.58 1.63 1.70 1.63 1.63 1.66 1.57 1.56 1.73 1.77 1.70 1.62 1.70 1.62 1.53 1.50 1.53 1.54 1.56 1.57 1.56 1.57 1.63 1.68 1.66
1.03 1.07 1.11 1.11 1.12 1.17 1.24 1.32 1.30 1.31 1.32 1.32 1.33 1.39 1.46 1.56 1.63 1.50 1.32 1.45 1.64 1.69 1.67 1.66 1.67 1.65 1.66 1.77 1.78 1.68 1.57 1.50 1.48 1.46 1.52 1.57 1.50 1.52 1.54 1.55 1.57 1.63 1.64
1.04 1.11 1.12 1.13 1.17 1.18 1.21 1.27 1.34 1.37 1.39 1.39 1.42 1.45 1.47 1.45 1.47 1.55 1.49 1.46 1.43 1.58 1.73 1.65 1.67 1.70 1.72 1.71 1.78 1.75 1.70 1.63 1.48 1.39 1.41 1.49 1.50 1.46 1.47 1.52 1.57 1.60 1.63
0.93 0.97 1.01 1.03 1.06 1.13 1.16 1.18 1.21 1.28 1.32 1.32 1.35 1.39 1.51 1.59 1.64 1.62 1.64 1.55 1.49 1.56 1.55 1.71 1.68 1.71 1.70 1.73 1.74 1.74 1.65 1.61 1.60 1.53 1.48 1.46 1.44 1.38 1.38 1.45 1.51 1.54 1.58
0.96 1.03 1.05 1.08 1.10 1.12 1.14 1.16 1.16 1.18 1.23 1.24 1.27 1.37 1.47 1.60 1.70 1.70 1.60 1.62 1.54 1.54 1.57 1.60 1.75 1.75 1.68 1.72 1.72 1.72 1.68 1.63 1.56 1.53 1.54 1.54 1.50 1.43 1.39 1.44 1.51 1.52 1.53
0.99 1.01 1.05 1.06 1.11 1.16 1.21 1.24 1.20 1.19 1.20 1.18 1.20 1.26 1.28 1.38 1.64 1.74 1.73 1.72 1.69 1.42 1.42 1.59 1.59 1.71 1.78 1.78 1.76 1.74 1.71 1.70 1.64 1.60 1.58 1.58 1.58 1.52 1.50 1.51 1.59 1.61 1.61
1.04 1.04 1.03 1.07 1.08 1.13 1.15 1.17 1.18 1.27 1.30 1.30 1.29 1.24 1.22 1.27 1.36 1.48 1.67 1.73 1.70 1.74 1.40 1.54 1.60 1.71 1.82 1.77 1.82 1.79 1.76 1.76 1.71 1.68 1.61 1.57 1.55 1.54 1.58 1.58 1.58 1.59 1.57
1.05 0.97 1.00 1.06 1.09 1.11 1.15 1.13 1.16 1.18 1.23 1.24 1.22 1.21 1.22 1.32 1.32 1.36 1.44 1.57 1.68 1.68 1.47 1.47 1.53 1.62 1.71 1.78 1.79 1.86 1.81 1.81 1.79 1.71 1.65 1.60 1.57 1.55 1.54 1.55 1.55 1.58 1.60
1.04 0.93 0.98 1.06 1.11 1.08 1.12 1.14 1.13 1.18 1.23 1.22 1.24 1.25 1.24 1.28 1.33 1.45 1.40 1.40 1.48 1.57 1.53 1.38 1.45 1.55 1.63 1.75 1.79 1.78 1.86 1.84 1.81 1.83 1.80 1.67 1.64 1.62 1.61 1.62 1.59 1.57 1.57
0.89 0.95 1.02 1.05 1.06 1.06 1.10 1.14 1.20 1.19 1.21 1.21 1.15 1.18 1.21 1.30 1.26 1.41 1.47 1.44 1.42 1.48 1.50 1.48 1.42 1.55 1.58 1.66 1.63 1.77 1.80 1.78 1.83 1.87 1.93 1.79 1.71 1.66 1.58 1.56 1.57 1.59 1.61
0.99 0.95 1.00 1.05 1.03 1.09 1.12 1.16 1.14 1.18 1.15 1.19 1.20 1.20 1.32 1.36 1.27 1.40 1.47 1.52 1.52 1.43 1.45 1.43 1.40 1.42 1.50 1.61 1.68 1.61 1.68 1.71 1.68 1.83 1.88 1.89 1.79 1.64 1.58 1.53 1.53 1.53 1.54
1.04 1.03 1.02 1.04 1.03 1.06 1.11 1.12 1.05 1.11 1.05 1.12 1.17 1.19 1.39 1.41 1.37 1.42 1.48 1.55 1.53 1.49 1.38 1.40 1.31 1.34 1.38 1.47 1.47 1.58 1.60 1.73 1.72 1.74 1.72 1.71 1.69 1.64 1.54 1.50 1.49 1.50 1.51
1.09 1.08 1.04 1.00 1.02 1.10 1.11 1.03 1.01 1.03 1.00 1.01 1.10 1.20 1.37 1.42 1.40 1.39 1.44 1.49 1.58 1.55 1.46 1.37 1.30 1.21 1.27 1.41 1.49 1.54 1.57 1.57 1.47 1.93 1.64 1.56 1.66 1.52 1.53 1.54 1.55 1.56 1.54
1.07 1.00 1.00 1.01 1.04 1.08 1.03 0.98 0.94 0.97 0.97 0.99 1.11 1.20 1.20 1.33 1.40 1.36 1.40 1.44 1.48 1.56 1.64 1.55 1.34 1.28 1.32 1.42 1.44 1.45 1.51 1.63 1.58 1.60 1.70 1.50 1.60 1.48 1.57 1.53 1.55 1.61 1.62
1.05 1.00 0.97 0.97 0.99 0.99 0.94 0.90 0.90 0.94 1.06 1.14 1.12 1.19 1.23 1.23 1.31 1.32 1.35 1.33 1.37 1.47 1.56 1.60 1.56 1.45 1.43 1.54 1.53 1.50 1.53 1.58 1.77 1.77 1.84 1.45 1.56 1.47 1.61 1.60 1.64 1.67 1.66
0.96 0.91 1.01 1.02 0.98 0.97 0.96 0.93 0.91 1.00 1.13 1.18 1.14 1.18 1.21 1.23 1.26 1.33 1.31 1.29 1.30 1.37 1.56 1.62 1.60 1.63 1.60 1.63 1.63 1.58 1.51 1.52 1.52 1.65 1.77 1.62 1.52 1.48 1.58 1.57 1.71 1.72 1.68
1.00 1.02 1.05 1.08 1.08 1.00 1.00 0.97 1.04 1.10 1.09 1.09 1.09 1.07 1.16 1.23 1.24 1.29 1.34 1.30 1.23 1.31 1.44 1.56 1.54 1.55 1.58 1.60 1.59 1.53 1.62 1.49 1.58 1.53 1.63 1.52 1.50 1.55 1.44 1.59 1.68 1.68 1.70
Wind_Speed
10 11 11 12 12 12 13 13 14 14 13 13 13 14 15 15 14 13 13 14 15 14 13 13 13 11 11 11 10 9 9 8 8 8 6 5 4 3 2 2 2 2 2
12 13 13 14 14 14 15 15 16 16 16 16 15 15 16 17 17 16 15 15 16 17 16 15 15 14 13 13 12 11 10 10 9 9 8 7 6 5 4 3 3 2 3
15 15 15 15 16 16 17 18 18 18 19 19 18 18 17 18 19 19 18 17 18 19 19 19 18 17 16 15 14 13 12 12 11 10 9 8 7 6 5 5 4 4 4
19 19 19 19 19 19 20 20 20 21 21 21 21 20 20 19 21 22 22 21 20 20 21 21 21 20 19 18 17 15 15 14 13 12 11 10 9 8 7 7 6 6 6
20 21 21 22 23 23 24 24 24 24 24 24 24 24 23 22 22 23 24 24 23 23 22 23 23 23 22 21 20 19 17 16 15 14 13 12 11 10 9 9 8 8 7
21 22 22 24 25 25 27 27 27 27 27 27 27 26 26 26 25 24 24 25 26 25 25 24 25 25 26 25 23 22 21 19 18 17 16 15 14 13 12 11 10 9 9
21 22 24 25 26 27 28 29 29 29 29 29 28 29 29 29 29 28 26 25 26 27 27 27 27 28 27 27 27 25 24 22 21 19 18 17 16 15 14 13 12 11 11
22 24 25 26 26 27 28 28 28 28 28 28 28 28 28 29 30 31 30 28 27 27 28 29 29 29 30 29 28 28 27 26 24 22 21 20 19 18 17 16 14 14 13
23 24 25 26 26 27 27 27 28 28 28 28 29 28 27 28 29 30 31 31 31 29 28 29 30 31 32 32 32 31 30 29 28 26 24 23 21 20 19 18 17 16 15
23 24 25 26 26 26 27 27 27 28 29 29 29 31 32 32 28 28 30 30 31 32 31 30 30 31 33 34 34 34 33 32 31 29 28 26 24 23 22 21 20 19 18
22 23 24 24 25 26 26 27 27 28 28 29 30 30 31 32 34 34 31 30 29 31 31 31 31 30 32 33 34 35 35 35 34 32 30 29 28 26 24 23 23 22 21
22 22 24 24 25 26 26 26 26 27 28 29 31 31 32 31 31 33 34 35 35 33 30 32 31 30 30 32 33 34 34 35 35 34 33 31 30 29 27 26 25 24 24
22 23 24 25 25 24 25 25 26 27 28 30 31 32 33 34 34 34 34 35 35 35 35 33 32 31 30 31 32 34 34 36 36 35 34 33 32 31 30 28 27 27 26
23 24 24 24 24 23 23 23 24 25 27 30 32 33 33 34 36 37 36 35 36 37 35 35 33 32 33 32 32 33 34 34 35 36 36 35 34 33 32 30 29 29 28
22 22 23 23 22 22 22 23 24 27 29 30 32 33 35 36 37 37 38 38 37 37 38 36 35 35 34 32 32 33 34 34 35 35 35 35 34 34 34 33 32 31 31
22 22 23 23 23 23 23 24 25 26 28 28 30 32 35 36 38 39 39 39 39 38 39 37 36 33 34 33 33 32 33 34 35 35 34 34 34 33 33 33 33 32 32
22 22 24 24 23 23 23 23 24 25 27 27 28 32 34 36 38 39 40 40 41 39 39 39 39 37 36 35 33 32 32 33 33 34 34 33 33 32 31 31 31 31 31
23 25 25 25 25 25 25 25 26 27 28 28 30 32 35 36 38 39 39 40 41 40 39 39 38 37 37 36 35 34 31 31 32 32 32 33 32 32 31 30 30 30 30
25 27 27 26 27 26 26 26 26 26 27 27 30 31 33 36 37 37 39 39 40 41 41 40 38 38 38 36 37 36 34 32 31 32 31 30 30 29 28 28 27 27 28
27 27 27 27 26 26 26 25 24 25 27 27 29 32 30 29 34 35 36 38 39 40 40 41 41 39 38 37 36 36 34 35 33 32 31 30 30 30 29 27 27 26 26
27 27 27 27 27 27 25 23 24 24 26 27 28 32 26 24 26 30 32 35 38 40 41 40 40 40 38 36 36 36 36 34 34 33 31 30 30 30 29 28 27 27 27
27 27 28 28 27 26 23 22 23 23 25 26 27 28 21 19 20 26 30 33 37 39 40 41 41 41 41 38 37 37 36 36 34 31 33 32 31 30 28 27 27 26 26
27 27 27 27 26 24 22 22 23 23 23 24 25 26 22 19 18 23 28 32 35 40 43 42 42 42 39 39 39 38 39 36 35 36 34 32 32 31 29 28 27 26 26
28 28 28 26 23 22 22 22 22 22 22 23 25 25 24 22 21 22 26 31 34 38 41 43 42 41 41 39 39 39 39 39 39 38 34 33 31 30 29 28 27 26 26
28 28 26 23 22 21 21 21 21 22 22 24 25 25 24 23 22 23 25 28 31 36 39 40 42 42 40 39 38 37 39 37 38 39 39 35 32 30 29 27 27 26 25
26 25 23 21 20 20 19 20 20 20 22 23 25 26 25 23 24 22 24 24 27 32 37 38 39 41 41 40 39 40 37 37 36 36 38 37 34 31 28 29 27 25 25
Wind_Direction
278 280 285 283 281 280 281 275 272 272 273 270 267 261 255 248 245 244 243 240 233 232 230 227 225 224 221 219 217 216 213 210 209 209 211 212 211 206 203 207 214 225 226
279 281 284 284 284 280 281 278 275 272 271 269 267 264 258 249 245 244 243 243 236 233 232 231 229 227 226 223 221 221 219 219 218 217 220 222 224 227 232 236 237 237 235
279 280 282 283 283 282 282 281 277 272 270 268 265 264 262 252 247 245 244 245 241 237 236 234 232 230 228 226 225 225 225 225 225 225 226 228 231 233 237 243 246 248 249
279 282 281 282 283 283 281 280 277 273 270 267 265 263 260 256 251 248 246 246 243 241 238 235 233 232 231 229 228 229 230 230 229 229 231 233 234 237 242 247 251 253 253
284 285 284 282 283 283 280 279 277 273 269 268 264 261 258 256 254 252 248 246 243 242 240 236 235 234 232 231 231 232 233 233 233 233 234 236 238 242 246 249 252 255 257
287 286 285 284 283 283 282 280 277 273 269 266 264 261 257 256 254 252 250 246 244 243 241 239 237 235 234 233 234 235 235 235 236 237 237 238 241 244 247 250 254 256 258
291 289 288 286 286 285 283 281 277 272 269 265 262 260 257 255 253 251 250 247 244 243 242 240 239 237 237 234 236 236 235 236 237 238 239 240 242 245 248 250 254 257 259
294 292 291 290 289 288 285 281 277 274 269 264 260 259 257 256 254 249 247 246 244 243 242 241 240 239 238 236 238 236 236 237 238 239 240 242 243 245 247 251 254 257 259
299 297 295 293 290 289 287 283 278 273 269 265 259 257 257 255 254 248 246 245 243 243 243 243 241 240 239 239 239 238 237 238 239 241 242 242 243 245 247 250 253 256 259
303 301 298 297 293 290 288 285 281 275 269 265 262 257 255 255 253 251 246 245 243 243 243 243 243 242 241 240 240 239 239 239 240 241 242 243 244 246 249 250 252 255 257
308 306 304 301 297 293 290 287 283 277 271 266 263 259 257 254 251 249 249 245 243 241 242 242 243 243 242 241 240 240 240 240 240 240 241 242 244 246 249 251 252 254 256
312 310 309 305 300 296 291 289 286 281 274 269 264 261 257 254 251 248 246 246 245 242 244 241 242 243 244 242 241 240 240 240 240 239 240 242 244 246 249 251 253 254 256
315 314 313 311 306 301 296 292 288 284 278 272 268 263 258 254 252 249 246 247 245 242 243 242 243 243 245 243 242 240 240 240 239 239 240 242 243 245 247 250 252 254 256
316 316 315 314 310 305 301 296 292 290 286 277 270 265 261 256 252 249 247 246 244 242 243 242 243 243 244 244 243 241 241 240 238 239 240 242 243 244 246 249 251 253 256
315 316 316 314 310 308 305 301 298 294 290 282 274 268 263 258 254 251 248 244 244 243 243 243 243 243 243 244 243 242 241 239 238 239 240 241 243 244 246 248 251 254 257
314 315 315 312 308 306 306 305 303 302 297 288 278 272 266 261 256 252 248 245 242 244 243 241 242 243 241 242 242 242 241 239 238 239 239 241 242 243 246 248 251 254 257
312 313 314 313 308 305 306 307 307 307 306 297 288 278 272 265 257 253 248 244 242 242 242 242 243 242 240 240 241 241 240 238 238 238 239 240 240 242 245 248 251 253 256
308 310 311 310 307 304 302 303 306 306 307 303 299 287 278 268 259 252 248 245 243 242 241 240 241 240 239 239 239 239 239 237 237 238 237 238 239 241 244 247 251 254 257
308 308 308 305 305 304 303 301 302 307 310 308 309 299 288 269 259 252 247 245 243 241 240 239 239 238 239 239 238 238 237 237 238 236 236 236 236 238 241 246 250 254 257
307 308 308 305 305 304 303 302 304 306 311 309 312 313 297 278 255 250 247 245 243 240 238 237 237 238 237 237 236 235 235 236 236 235 234 235 235 237 241 246 250 254 258
306 306 307 305 303 302 301 300 304 307 312 313 318 322 309 285 260 251 249 247 243 240 238 237 236 235 235 235 235 234 235 233 233 232 233 235 236 238 242 247 251 254 257
307 305 305 305 303 301 297 298 303 306 312 315 319 325 320 305 273 257 254 251 246 240 237 235 235 234 234 235 234 233 232 232 231 231 232 235 236 238 242 247 251 255 256
309 307 306 305 302 300 296 297 300 303 310 317 322 327 320 309 303 271 262 256 250 242 238 235 234 232 233 233 234 232 232 232 231 232 233 235 237 239 242 246 250 254 257
309 308 307 305 300 300 296 296 299 301 305 312 320 324 323 318 299 294 276 261 254 244 236 234 233 233 232 234 233 233 233 233 232 231 231 234 235 239 241 247 248 254 257
309 308 305 303 301 301 299 298 297 300 302 311 317 318 322 320 309 305 290 272 258 244 235 232 231 231 230 230 231 231 230 231 231 231 231 233 235 239 241 245 249 254 255
308 311 306 302 302 303 303 301 300 300 304 310 317 320 320 315 318 313 309 284 262 247 232 229 229 229 229 230 230 230 230 230 231 232 229 228 232 235 241 246 248 253 254